This is the latest recevied weather packets stored in our database for station/object KC1IUC-15. If no packets are shown the sender has not sent any weather packets the latest 10 day(s).
| Time | Temp. | Humidity | Pressure | Rain* | Wind** | Luminosity | Snow |
|---|---|---|---|---|---|---|---|
| 1777554303 | 9.44° C | 98% | 1007.2 hPa | 0.76 mm | - | 51 W/m² | - |
| 1777554003 | 8.89° C | 98% | 1006.9 hPa | 0.76 mm | - | 68 W/m² | - |
| 1777553703 | 9.44° C | 98% | 1006.9 hPa | 0.76 mm | - | 45 W/m² | - |
| 1777553403 | 9.44° C | 98% | 1007.2 hPa | 0.76 mm | - | 34 W/m² | - |
| 1777553103 | 9.44° C | 98% | 1007.2 hPa | 0.76 mm | - | 44 W/m² | - |
| 1777552804 | 8.89° C | 98% | 1007.2 hPa | 0.76 mm | - | 68 W/m² | - |
| 1777552503 | 9.44° C | 98% | 1007.5 hPa | 0.76 mm | - | 70 W/m² | - |
| 1777552203 | 9.44° C | 98% | 1007.2 hPa | 0.76 mm | - | 54 W/m² | - |
| 1777551903 | 9.44° C | 98% | 1007.5 hPa | 0.51 mm | - | 43 W/m² | - |
| 1777551603 | 9.44° C | 98% | 1007.5 hPa | 0.51 mm | - | 35 W/m² | - |
| 1777551303 | 8.89° C | 98% | 1007.2 hPa | 0.51 mm | - | 64 W/m² | - |
| 1777551003 | 8.89° C | 98% | 1007.2 hPa | 0.51 mm | - | 62 W/m² | - |
| 1777550703 | 8.89° C | 98% | 1007.5 hPa | 0.25 mm | - | 42 W/m² | - |
| 1777550403 | 9.44° C | 98% | 1007.5 hPa | 0.25 mm | - | 48 W/m² | - |
| 1777550103 | 8.89° C | 98% | 1007.5 hPa | 0.25 mm | - | 67 W/m² | - |
| 1777549803 | 8.89° C | 98% | 1007.9 hPa | 0.25 mm | - | 51 W/m² | - |
| 1777549503 | 8.89° C | 98% | 1007.5 hPa | 0 mm | - | 49 W/m² | - |
| 1777549203 | 8.89° C | 98% | 1007.9 hPa | 0 mm | - | 33 W/m² | - |
| 1777548903 | 8.89° C | 98% | 1007.9 hPa | 0 mm | - | 38 W/m² | - |
| 1777548603 | 8.89° C | 98% | 1007.9 hPa | 0 mm | - | 44 W/m² | - |
| 1777548303 | 8.89° C | 98% | 1008.2 hPa | 0 mm | - | 34 W/m² | - |
| 1777548003 | 8.89° C | 98% | 1007.9 hPa | 0 mm | - | 22 W/m² | - |
| 1777547703 | 8.89° C | 98% | 1007.9 hPa | 0 mm | - | 17 W/m² | - |
| 1777547403 | 8.89° C | 98% | 1007.9 hPa | 0 mm | - | 14 W/m² | - |
| 1777547103 | 8.89° C | 98% | 1007.5 hPa | 0 mm | - | 15 W/m² | - |
* Rain latest hour (hover to see other rain measurements)
** Current wind speed in m/s (hover to see current wind gust speed)